Location: Castle
(40.7167°S, 175.9500°E)
Time: 03:52:54
(UTC+00:00)

SMAP - Pass Details

Date: 04 August 2024
Orbit: 681 x 683 km, 98.1° (Epoch: 07 September)

Event Time Altitude Azimuth Distance (km) Brightness Sun altitude
Rises 17:54:07 0° 7° (N) 3,035 6.6 -16.2°
Reaches altitude 10° 17:56:21 10° 3° (N) 2,128 5.8 -15.8°
Maximum altitude 18:00:58 65° 282° (WNW) 763 3.0 -14.9°
Drops below altitude 10° 18:05:41 10° 199° (SSW) 2,158 5.4 -14.0°
Sets 18:07:58 0° 196° (SSW) 3,083 6.2 -13.6°
